Preview of NWS' New Version of Forecast
This preview is not operational and should not be used for support decisions.

Regional Weather Roundup (RWR)

Issued by National Weather Service (NWS)

                            
000
ASCA42 TJSJ 211310
RWRPR 
PUERTO RICO/U.S. VIRGIN ISLANDS HOURLY WEATHER ROUNDUP
NATIONAL WEATHER SERVICE SAN JUAN PR
900 AM AST SUN APR 21 2019

PRZ001>002-007>008-010-211400-
PUERTO RICO
  
CITY           SKY/WX    TMP DP  RH WIND       PRES   REMARKS
SAN JUAN LMM   MOSUNNY   81  72  74 E14       30.08S                  
AGUADILLA      SUNNY     81  70  69 E13       30.09R                  
CEIBA          PTSUNNY   82  72  69 MISG      30.10R                  
$$

VIZ001>002-211400-
U.S. VIRGIN ISLANDS
  
CITY           SKY/WX    TMP DP  RH WIND       PRES   REMARKS
CHARLOTTE AMA  MOSUNNY   81  70  69 E12       30.08R                  
CHRISTIANSTED  MOSUNNY   82  66  57 E20       30.07S                  
$$

HOURLY WEATHER ROUNDUP FOR THE NEWS MEDIA
  
CITY           SKY/WX    TMP DP  RH WIND       PRES   REMARKS
ORLANDO        FAIR      64  50  60 W7        30.11R                  
NEW YORK       LGT RAIN  55  54  96 SE15      29.99R                  
NEWARK         PTSUNNY   56  50  80 SE6       29.97R                  
CHICAGO        FAIR      53  20  27 S6        29.97R                  
HARTFORD       CLOUDY    58  58 100 E8        30.01S                  
BOSTON         CLOUDY    61  56  83 W3        30.01F                  
DALLAS         MOSUNNY   61  54  77 SE9       29.96R                  
PHILADELPHIA   PTSUNNY   59  50  72 SW12      29.95R                  
LOS ANGELES    PTCLDY    55  49  80 W3        30.01R                  
WASHINGTON DC  PTSUNNY   54  43  66 CALM      29.98R